[[{"header":{"parameterUnit":"m.s-1","parameterCategory":1,"la1":30.2991,"la2":30.254,"lo1":-89.0895,"lo2":-89.0444,"dy":0.0017,"dx":0.0017,"nx":28,"ny":28,"refTime":"2025-01-05T03:00:00:Z","depth":0,"parameterNumber":2,"parameterNumberName":"U-component_of_WINDS"},"data":[0,0,0,0,0,0,0,0,0,0,0,0,0,0,0,0,0,0,0,0,0,0,0,0,0,0,0,0,0,0,0,0,0,0,0,0,0,0,0,0,0,0,0,0,0,0,0,0,0,0,0,0,0,0,0,0,0,0,3.4079,3.408,0,3.4115,3.4115,3.4116,3.408,3.4078,3.4077,3.4076,3.411,3.4112,3.4114,0,0,0,0,0,0,0,0,0,0,0,0,0,3.3979,3.3981,3.4079,3.408,3.408,3.4115,3.4115,3.4116,3.408,3.4078,3.4077,3.4075,3.4109,3.4112,3.4115,0,0,0,0,0,0,0,0,0,0,0,0,0,3.4019,3.3982,3.4079,3.4067,3.4066,3.4115,3.4115,3.4116,3.408,3.4078,3.4076,3.4074,3.4109,3.4112,3.4115,3.4178,0,0,3.4125,3.4127,0,0,0,0,0,0,0,0,3.4017,3.4023,3.4068,3.4067,3.4067,3.4091,3.4093,3.4137,3.4081,3.4075,3.4076,3.4073,3.4105,3.4109,3.412,3.4179,3.4181,3.4126,3.4128,3.4129,3.413,0,0,0,0,0,0,0,3.4014,3.4021,3.4093,3.4069,3.4068,3.4059,3.4062,3.4101,3.4101,3.4075,3.4073,3.4078,3.4104,3.4117,3.412,3.4181,3.4125,3.4128,3.413,3.4132,3.4295,3.4297,0,0,0,0,0,0,3.4013,3.4019,3.4092,3.4094,3.4036,3.4062,3.4066,3.4085,3.4101,3.4101,3.4079,3.4076,3.4112,3.4117,3.4122,3.4196,3.4129,3.4132,3.4134,3.4292,3.4295,3.4298,0,0,0,0,0,0,3.4011,3.402,3.4091,3.4056,3.4064,3.4066,3.4088,3.4087,3.4099,3.4104,3.4104,3.4092,3.4111,3.4117,3.4164,3.4197,3.4134,3.4137,3.429,3.4293,3.4296,3.4346,0,0,0,0,0,0,3.4008,3.402,3.4043,3.4057,3.4067,3.4133,3.409,3.4089,3.4105,3.4101,3.4116,3.4116,3.411,3.416,3.4168,3.42,3.4139,3.4287,3.4291,3.4295,3.4341,3.435,3.4358,0,0,0,0,0,3.4005,3.4055,3.4045,3.4054,3.4097,3.4135,3.414,3.4133,3.4108,3.4132,3.4135,3.4116,3.4192,3.4165,3.4174,3.4208,3.4285,3.429,3.4295,3.4337,3.4349,3.4358,0,0,0,0,0,0,3.4044,3.4057,3.4045,3.4101,3.4118,3.4129,3.4159,3.4145,3.4168,3.4162,3.4151,3.4155,3.4205,3.4211,3.418,3.427,3.4234,3.4242,3.4263,3.4274,3.4283,3.428,3.4142,0,0,0,0,0,3.4059,3.409,3.4099,3.4148,3.4157,3.4157,3.4173,3.4166,3.4182,3.4189,3.4195,3.4211,3.4239,3.4257,3.4283,3.4342,3.4345,3.437,3.4379,3.4386,3.4392,3.4424,3.4436,3.4315,3.4315,3.4315,0,0,3.4091,3.4102,3.4122,3.4156,3.4168,3.42,3.4163,3.4198,3.4221,3.4194,3.4239,3.4245,3.4262,3.4316,3.434,3.4322,3.4426,3.4393,3.4398,3.44,3.4431,3.4442,3.4453,3.4318,3.4318,3.4317,0,0,3.4164,3.4176,3.4218,3.4231,3.425,3.425,3.426,3.4274,3.4277,3.4323,3.4303,3.4331,3.4379,3.4392,3.4405,3.4486,3.4469,3.4495,3.4539,3.4571,3.4581,3.4589,3.4618,3.4628,3.4501,3.4501,3.4501,0,3.4201,3.4249,3.4241,3.4278,3.4294,3.4272,3.4315,3.4328,3.4354,3.4365,3.4345,3.4406,3.4416,3.4473,3.4493,3.4504,3.4515,3.4492,3.458,3.4588,3.4596,3.4623,3.4634,3.4504,3.4504,3.4504,3.4503,0,3.4293,3.4326,3.4358,3.4385,3.4405,3.4444,3.4443,3.4463,3.4455,3.4457,3.4504,3.4516,3.4544,3.4557,3.4549,3.4614,3.4602,3.4582,3.4546,3.4611,3.4636,3.4646,3.4509,3.4507,3.4507,3.4506,0,0,3.439,3.4414,3.4425,3.4438,3.4458,3.4483,3.4522,3.4551,3.4569,3.4588,3.462,3.4663,3.4644,3.4659,3.4652,3.4681,3.4744,3.4656,3.4657,3.4672,3.4816,3.483,3.4843,3.4734,3.4735,3.4737,3.4814,0,3.4464,3.4532,3.4527,3.4591,3.4622,3.4603,3.4637,3.4653,3.4657,3.4683,3.4687,3.4717,3.469,3.4699,3.4726,3.4731,3.4773,3.4725,3.4763,3.4764,3.4758,3.4856,3.4871,3.4943,3.4824,3.4826,3.4827,0,3.4558,3.4582,3.465,3.4666,3.4679,3.471,3.4736,3.4762,3.478,3.4781,3.4799,3.4788,3.4827,3.4792,3.4846,3.4814,3.4829,3.4834,3.4836,3.4838,3.4798,3.486,3.4966,3.4977,3.4843,3.4841,3.484,0,3.4622,3.4671,3.4718,3.4729,3.475,3.4772,3.4781,3.4797,3.4815,3.4838,3.485,3.4877,3.4892,3.4913,3.491,3.4884,3.4965,3.4929,3.4966,3.4966,3.4982,3.4981,3.5092,3.4994,3.4994,3.4994,3.4994,0,3.4704,3.4746,3.4747,3.4775,3.4822,3.4817,3.4863,3.487,3.4885,3.4914,3.49,3.4928,3.4922,3.495,3.4948,3.4993,3.5,3.5001,3.5,3.5002,3.5002,3.5011,3.5005,3.4997,3.4996,3.4995,3.4995,0,3.4782,3.4784,3.4834,3.485,3.4856,3.4889,3.4903,3.493,3.4933,3.4971,3.4979,3.4984,3.5017,3.5016,3.5053,3.5051,3.5106,3.51,3.51,3.5099,3.5135,3.5131,3.5254,3.527,3.5164,3.5165,3.5166,0,3.4833,3.4865,3.4886,3.4905,3.4917,3.4948,3.4966,3.4963,3.4983,3.5007,3.5031,3.5063,3.5087,3.514,3.5146,3.5175,3.5168,3.5209,3.5172,3.5173,3.5168,3.5165,3.5168,3.5216,3.5217,3.5218,3.5219,0,3.4925,3.4925,3.4953,3.4982,3.5005,3.5027,3.5047,3.5064,3.5063,3.5086,3.5119,3.5139,3.5177,3.5208,3.5236,3.5245,3.5232,3.5231,3.5241,3.5242,3.5241,3.5242,3.5119,3.5228,3.5227,3.5226,3.5226,3.5225,3.4991,3.5019,3.5038,3.5069,3.5085,3.5105,3.5131,3.5139,3.5167,3.5198,3.5195,3.5232,3.5251,3.5286,3.5299,3.5328,3.5313,3.5327,3.5331,3.5334,3.5338,3.5238,3.5333,3.5332,3.5332,3.5332,3.5332,0,3.5081,3.5093,3.5122,3.5152,3.5177,3.5164,3.5187,3.5208,3.5242,3.526,3.5286,3.5325,3.5355,3.5365,3.5395,3.5416,3.5411,3.5424,3.5422,3.5424,3.5349,3.5338,3.5428,3.5428,3.5428,3.5428,3.5428,3.5428,3.513,3.5177,3.518,3.5234,3.5245,3.5283,3.5297,3.5315,3.533,3.5375,3.54,3.5407,3.5422,3.5453,3.5481,3.5483,3.5494,3.551,3.5509,3.5439,3.5429,3.542,3.5409,3.5513,3.5513,3.5581,3.5582,3.5583]},{"header":{"parameterUnit":"m.s-1","parameterCategory":1,"la1":30.2991,"la2":30.254,"lo1":-89.0895,"lo2":-89.0444,"dy":0.0017,"dx":0.0017,"nx":28,"ny":28,"refTime":"2025-01-05T03:00:00:Z","depth":0,"parameterNumber":3,"parameterNumberName":"V-component_of_WINDS"},"data":[0,0,0,0,0,0,0,0,0,0,0,0,0,0,0,0,0,0,0,0,0,0,0,0,0,0,0,0,0,0,0,0,0,0,0,0,0,0,0,0,0,0,0,0,0,0,0,0,0,0,0,0,0,0,0,0,0,0,-7.8749,-7.8752,0,-7.9001,-7.9004,-7.9006,-7.8956,-7.8951,-7.8947,-7.8942,-7.9196,-7.9207,-7.9218,0,0,0,0,0,0,0,0,0,0,0,0,0,-7.8222,-7.8232,-7.8749,-7.8752,-7.8755,-7.9,-7.9004,-7.9007,-7.8957,-7.8951,-7.8946,-7.894,-7.9193,-7.9206,-7.9219,0,0,0,0,0,0,0,0,0,0,0,0,0,-7.846,-7.8235,-7.8748,-7.876,-7.8763,-7.9,-7.9004,-7.9008,-7.8958,-7.8951,-7.8944,-7.8938,-7.9189,-7.9205,-7.9221,-7.9461,0,0,-7.9272,-7.9279,0,0,0,0,0,0,0,0,-7.8446,-7.8479,-7.8755,-7.8759,-7.8764,-7.894,-7.8911,-7.916,-7.896,-7.8884,-7.8942,-7.8934,-7.9116,-7.9138,-7.9201,-7.9473,-7.9484,-7.9273,-7.9283,-7.929,-7.9295,0,0,0,0,0,0,0,-7.843,-7.8468,-7.8848,-7.8759,-7.8764,-7.8751,-7.8777,-7.8958,-7.9036,-7.889,-7.8887,-7.8918,-7.9117,-7.9185,-7.9206,-7.9487,-7.9273,-7.9287,-7.9297,-7.9304,-7.9969,-7.9977,0,0,0,0,0,0,-7.841,-7.8455,-7.884,-7.8856,-7.8585,-7.8766,-7.8796,-7.889,-7.9033,-7.9049,-7.8923,-7.8914,-7.916,-7.9187,-7.9215,-7.9506,-7.929,-7.9306,-7.9315,-7.9962,-7.9971,-7.9979,0,0,0,0,0,0,-7.8399,-7.8445,-7.883,-7.8655,-7.8703,-7.8783,-7.8889,-7.8899,-7.8966,-7.9059,-7.9072,-7.8978,-7.9156,-7.9192,-7.9401,-7.9514,-7.9313,-7.9328,-7.9952,-7.9964,-7.9975,-8.009,0,0,0,0,0,0,-7.8384,-7.8441,-7.8534,-7.8657,-7.8712,-7.9013,-7.8896,-7.8909,-7.8995,-7.8986,-7.9114,-7.9128,-7.9153,-7.9376,-7.9417,-7.9533,-7.9341,-7.9943,-7.9958,-7.9971,-8.0076,-8.0104,-8.0127,0,0,0,0,0,-7.8365,-7.8555,-7.8539,-7.8586,-7.883,-7.902,-7.9051,-7.9077,-7.9005,-7.9098,-7.9158,-7.9124,-7.9495,-7.9398,-7.9444,-7.9567,-7.9936,-7.9953,-7.997,-8.0065,-8.0098,-8.0127,0,0,0,0,0,0,-7.8442,-7.8571,-7.8555,-7.879,-7.8895,-7.9011,-7.9129,-7.9112,-7.9238,-7.9224,-7.9249,-7.9278,-7.9491,-7.9549,-7.9439,-7.9806,-7.9705,-7.9732,-7.9761,-7.9794,-7.9819,-7.98,-7.9355,0,0,0,0,0,-7.8486,-7.863,-7.8735,-7.8933,-7.8986,-7.9049,-7.9133,-7.9144,-7.9252,-7.9295,-7.937,-7.9476,-7.9616,-7.9708,-7.9842,-8.0084,-8.0111,-8.0191,-8.0216,-8.0237,-8.0261,-8.0393,-8.043,-8.0036,-8.0036,-8.0036,0,0,-7.8579,-7.8668,-7.8757,-7.8951,-7.9033,-7.9181,-7.9086,-7.9247,-7.9357,-7.9319,-7.9522,-7.958,-7.9699,-7.9926,-8.003,-7.9981,-8.0375,-8.0259,-8.0275,-8.0288,-8.0415,-8.0452,-8.0486,-8.0048,-8.0046,-8.0044,0,0,-7.8824,-7.8906,-7.908,-7.9165,-7.929,-7.9331,-7.9373,-7.9493,-7.953,-7.9734,-7.971,-7.984,-8.0081,-8.0167,-8.0243,-8.0522,-8.0495,-8.0564,-8.0698,-8.0828,-8.0859,-8.0886,-8.0986,-8.1022,-8.0587,-8.0588,-8.0588,0,-7.8924,-7.9147,-7.9171,-7.9335,-7.9421,-7.9395,-7.9572,-7.9652,-7.9815,-7.9874,-7.9818,-8.0121,-8.0199,-8.0446,-8.0514,-8.0576,-8.0624,-8.055,-8.0852,-8.088,-8.0907,-8.1002,-8.104,-8.0595,-8.0594,-8.0593,-8.0593,0,-7.9263,-7.9418,-7.9544,-7.9703,-7.9803,-7.9972,-8.0022,-8.012,-8.0122,-8.0168,-8.0376,-8.047,-8.0623,-8.0682,-8.0685,-8.093,-8.0896,-8.0846,-8.0745,-8.0951,-8.1042,-8.1079,-8.0606,-8.0603,-8.0601,-8.0599,0,0,-7.9564,-7.9736,-7.9782,-7.9854,-7.9991,-8.0111,-8.0278,-8.043,-8.0513,-8.0626,-8.0767,-8.0972,-8.0928,-8.1013,-8.1026,-8.1139,-8.1355,-8.1075,-8.1078,-8.1125,-8.1631,-8.1668,-8.171,-8.1338,-8.1345,-8.1351,-8.1621,0,-7.9823,-8.012,-8.0147,-8.0414,-8.0557,-8.0535,-8.0681,-8.0781,-8.0829,-8.0956,-8.1008,-8.1154,-8.1083,-8.1135,-8.1246,-8.1305,-8.1457,-8.1286,-8.1469,-8.1476,-8.1441,-8.1758,-8.1798,-8.2048,-8.1657,-8.1663,-8.1667,0,-8.0165,-8.029,-8.0571,-8.0689,-8.075,-8.0881,-8.1022,-8.1144,-8.1256,-8.1283,-8.138,-8.1377,-8.1549,-8.1441,-8.1678,-8.1561,-8.1637,-8.1677,-8.1688,-8.1706,-8.1584,-8.1785,-8.2129,-8.2167,-8.1723,-8.1718,-8.1714,0,-8.0357,-8.0595,-8.0794,-8.0857,-8.0999,-8.1092,-8.1155,-8.126,-8.135,-8.1472,-8.153,-8.1671,-8.1748,-8.1856,-8.1891,-8.1809,-8.2127,-8.2022,-8.2154,-8.2154,-8.2223,-8.2218,-8.2584,-8.2271,-8.227,-8.227,-8.2269,0,-8.0644,-8.0817,-8.0883,-8.1006,-8.1199,-8.1228,-8.1418,-8.1476,-8.157,-8.1703,-8.1691,-8.1816,-8.1855,-8.1986,-8.2015,-8.2207,-8.2241,-8.2267,-8.2273,-8.227,-8.2266,-8.232,-8.2304,-8.228,-8.2277,-8.2275,-8.2274,0,-8.0892,-8.0943,-8.1159,-8.1276,-8.1309,-8.1447,-8.1547,-8.1664,-8.171,-8.1879,-8.192,-8.1991,-8.2145,-8.2191,-8.2376,-8.2395,-8.2621,-8.261,-8.2583,-8.2584,-8.2714,-8.2702,-8.3128,-8.3186,-8.2834,-8.2837,-8.284,0,-8.1072,-8.1205,-8.1336,-8.1425,-8.1493,-8.1636,-8.1727,-8.1761,-8.1856,-8.1994,-8.2096,-8.2248,-8.2372,-8.2619,-8.2687,-8.2829,-8.2822,-8.2961,-8.2843,-8.2835,-8.2825,-8.2817,-8.2831,-8.2984,-8.2988,-8.2991,-8.2993,0,-8.1386,-8.1405,-8.1538,-8.1681,-8.179,-8.1904,-8.2012,-8.2086,-8.2134,-8.2242,-8.2401,-8.2497,-8.2687,-8.2838,-8.2982,-8.3045,-8.3029,-8.303,-8.3068,-8.3066,-8.3046,-8.3059,-8.2645,-8.302,-8.3017,-8.3015,-8.3014,-8.3013,-8.1606,-8.1724,-8.1835,-8.1984,-8.2069,-8.2172,-8.2289,-8.2349,-8.2482,-8.264,-8.2651,-8.2823,-8.2931,-8.3123,-8.3194,-8.3328,-8.3287,-8.3342,-8.3357,-8.337,-8.3381,-8.3024,-8.3354,-8.3353,-8.3353,-8.3352,-8.3352,0,-8.1921,-8.1992,-8.2128,-8.2282,-8.2398,-8.2373,-8.2492,-8.2591,-8.2743,-8.2846,-8.2969,-8.3151,-8.3298,-8.3377,-8.3524,-8.3616,-8.3612,-8.3653,-8.3647,-8.3662,-8.3409,-8.3362,-8.3654,-8.3654,-8.3654,-8.3654,-8.3654,-8.3654,-8.2098,-8.2296,-8.2328,-8.2568,-8.2637,-8.2806,-8.2877,-8.2971,-8.3054,-8.3258,-8.3381,-8.3432,-8.3526,-8.3679,-8.3813,-8.3832,-8.3887,-8.3934,-8.3949,-8.3711,-8.368,-8.365,-8.3606,-8.3945,-8.3946,-8.4191,-8.4193,-8.4195]}]]